| time (UTC) | temp F | wind direction | speed knots | gust knots | rain 1hr in | rain 24hr in | rain mn in | humidity % | barometer mb |
| 20260906202502 | 84 | 164 | 3.5 | 7.0 | 0.00 | 0.00 | 0.00 | 75 | 968.6 |
| 20260906202003 | 84 | 135 | 4.3 | 4.3 | 0.00 | 0.00 | 0.00 | 75 | 968.6 |
| 20260906201003 | 85 | 135 | 4.3 | 5.2 | 0.00 | 0.00 | 0.00 | 77 | 968.6 |
| 20260906200003 | 85 | 45 | 1.7 | 4.3 | 0.00 | 0.00 | 0.00 | 78 | 968.8 |
| 20260906195503 | 85 | 45 | 4.3 | 4.3 | 0.00 | 0.00 | 0.00 | 79 | 968.8 |
| 20260906195003 | 84 | 45 | 2.6 | 4.3 | 0.00 | 0.00 | 0.00 | 80 | 968.9 |
| 20260906194503 | 84 | 219 | 2.6 | 5.2 | 0.00 | 0.00 | 0.00 | 80 | 968.9 |
| 20260906194003 | 84 | 94 | 2.6 | 7.8 | 0.00 | 0.00 | 0.00 | 81 | 969.0 |
| 20260906193503 | 84 | 98 | 4.3 | 6.1 | 0.00 | 0.00 | 0.00 | 78 | 969.0 |
| 20260906192503 | 84 | 225 | 1.7 | 1.7 | 0.00 | 0.00 | 0.00 | 79 | 969.0 |
| 20260906192003 | 84 | 225 | 3.5 | 6.1 | 0.00 | 0.00 | 0.00 | 79 | 969.0 |
| 20260906191503 | 84 | 123 | 4.3 | 6.1 | 0.00 | 0.00 | 0.00 | 79 | 969.1 |
| 20260906191003 | 84 | 112 | 3.5 | 4.3 | 0.00 | 0.00 | 0.00 | 80 | 969.1 |
| 20260906190504 | 84 | 112 | 2.6 | 5.2 | 0.00 | 0.00 | 0.00 | 80 | 969.1 |
| 20260906185503 | 83 | 135 | 5.2 | 5.2 | 0.00 | 0.00 | 0.00 | 81 | 969.2 |
| 20260906184004 | 81 | 135 | 1.7 | 1.7 | 0.00 | 0.00 | 0.00 | 88 | 969.5 |
| 20260906183004 | 81 | 135 | 1.7 | 1.7 | 0.00 | 0.00 | 0.00 | 88 | 969.5 |
| 20260906182004 | 81 | 135 | 1.7 | 1.7 | 0.00 | 0.00 | 0.00 | 88 | 969.6 |
| 20260906180952 | 81 | 135 | 1.7 | 1.7 | 0.00 | 0.00 | 0.00 | 88 | 969.8 |
| 20260906180452 | 81 | 135 | 1.7 | 1.7 | 0.00 | 0.00 | 0.00 | 88 | 970.0 |
| 20260906175452 | 81 | 135 | 1.7 | 1.7 | 0.00 | 0.00 | 0.00 | 88 | 970.1 |
| 20260906174952 | 81 | 135 | 1.7 | 1.7 | 0.00 | 0.00 | 0.00 | 88 | 970.3 |
| 20260906174452 | 81 | 135 | 1.7 | 1.7 | 0.00 | 0.00 | 0.00 | 88 | 970.3 |
| 20260906173952 | 81 | 135 | 1.7 | 1.7 | 0.00 | 0.00 | 0.00 | 88 | 970.4 |
| 20260906173452 | 81 | 143 | 1.7 | 1.7 | 0.00 | 0.00 | 0.00 | 88 | 970.4 |
| 20260906172952 | 81 | 202 | 1.7 | 1.7 | 0.00 | 0.00 | 0.00 | 88 | 970.4 |
| 20260906172452 | 80 | 202 | 2.6 | 2.6 | 0.00 | 0.00 | 0.00 | 88 | 970.5 |
| 20260906171452 | 80 | 270 | 1.7 | 1.7 | 0.00 | 0.00 | 0.00 | 88 | 970.8 |
| 20260906170952 | 80 | 269 | 2.6 | 4.3 | 0.00 | 0.00 | 0.00 | 88 | 970.8 |
| 20260906165953 | 78 | 225 | 1.7 | 1.7 | 0.00 | 0.00 | 0.00 | 90 | 970.9 |
| 20260906165452 | 78 | 225 | 1.7 | 1.7 | 0.00 | 0.00 | 0.00 | 90 | 970.9 |
| 20260906163952 | 78 | 225 | 2.6 | 2.6 | 0.00 | 0.00 | 0.00 | 90 | 971.1 |
| 20260906163453 | 78 | 225 | 2.6 | 2.6 | 0.00 | 0.00 | 0.00 | 90 | 971.1 |
| 20260906162952 | 78 | 225 | 2.6 | 2.6 | 0.00 | 0.00 | 0.00 | 90 | 971.0 |
| 20260906162453 | 78 | 329 | 2.6 | 2.6 | 0.00 | 0.00 | 0.00 | 90 | 971.0 |
| 20260906161953 | 78 | 270 | 2.6 | 4.3 | 0.00 | 0.00 | 0.00 | 90 | 971.0 |
| 20260906161452 | 77 | 112 | 1.7 | 5.2 | 0.00 | 0.00 | 0.00 | 92 | 971.2 |
| 20260906160952 | 76 | 112 | 5.2 | 5.2 | 0.00 | 0.00 | 0.00 | 91 | 971.2 |
| 20260906160453 | 76 | 112 | 4.3 | 5.2 | 0.00 | 0.00 | 0.00 | 91 | 971.0 |
| 20260906155453 | 74 | 112 | 4.3 | 6.1 | 0.00 | 0.00 | 0.00 | 94 | 971.0 |
| 20260906154453 | 74 | 112 | 3.5 | 4.3 | 0.00 | 0.00 | 0.00 | 95 | 971.2 |
| 20260906153953 | 70 | 18 | 3.5 | 4.3 | 0.00 | 0.00 | 0.00 | 99 | 971.3 |
| 20260906153453 | 70 | 112 | 2.6 | 5.2 | 0.00 | 0.00 | 0.00 | 99 | 971.3 |
| 20260906152953 | 70 | 148 | 4.3 | 7.0 | 0.00 | 0.00 | 0.00 | 99 | 971.3 |
| 20260906152454 | 67 | 180 | 1.7 | 2.6 | 0.00 | 0.00 | 0.00 | 99 | 971.3 |
| 20260906151953 | 63 | 179 | 2.6 | 2.6 | 0.00 | 0.00 | 0.00 | 99 | 971.3 |
| 20260906150953 | 63 | 112 | 2.6 | 2.6 | 0.00 | 0.00 | 0.00 | 99 | 971.1 |
| 20260906150455 | 63 | 112 | 2.6 | 2.6 | 0.00 | 0.00 | 0.00 | 99 | 971.2 |
| 20260906144954 | 63 | 112 | 2.6 | 2.6 | 0.00 | 0.00 | 0.00 | 99 | 971.1 |
| 20260906143954 | 63 | 112 | 2.6 | 2.6 | 0.00 | 0.00 | 0.00 | 99 | 971.1 |
| 20260906143453 | 63 | 112 | 2.6 | 2.6 | 0.00 | 0.00 | 0.00 | 99 | 971.1 |
| 20260906142953 | 63 | 112 | 2.6 | 2.6 | 0.00 | 0.00 | 0.00 | 99 | 971.1 |
| 20260906142453 | 63 | 112 | 2.6 | 2.6 | 0.00 | 0.00 | 0.00 | 99 | 971.1 |
| 20260906141954 | 63 | 112 | 2.6 | 2.6 | 0.00 | 0.00 | 0.00 | 99 | 971.1 |
| 20260906141454 | 63 | 112 | 2.6 | 2.6 | 0.00 | 0.00 | 0.00 | 99 | 971.3 |
| 20260906140954 | 63 | 112 | 2.6 | 2.6 | 0.00 | 0.00 | 0.00 | 99 | 971.3 |
| 20260906135955 | 63 | 112 | 2.6 | 2.6 | 0.00 | 0.00 | 0.00 | 99 | 971.2 |
| 20260906134955 | 63 | 112 | 2.6 | 2.6 | 0.00 | 0.00 | 0.00 | 99 | 971.1 |
| 20260906134455 | 63 | 112 | 2.6 | 2.6 | 0.00 | 0.00 | 0.00 | 99 | 971.1 |
| 20260906133954 | 63 | 112 | 2.6 | 2.6 | 0.00 | 0.00 | 0.00 | 99 | 971.1 |
| 20260906133454 | 63 | 112 | 2.6 | 2.6 | 0.00 | 0.00 | 0.00 | 99 | 971.1 |
| 20260906132454 | 63 | 112 | 2.6 | 2.6 | 0.00 | 0.00 | 0.00 | 99 | 971.3 |
| 20260906131954 | 63 | 112 | 2.6 | 2.6 | 0.00 | 0.00 | 0.00 | 99 | 971.3 |
| 20260906131454 | 63 | 191 | 2.6 | 2.6 | 0.00 | 0.00 | 0.00 | 99 | 971.3 |
| 20260906130955 | 63 | 112 | 2.6 | 2.6 | 0.00 | 0.00 | 0.00 | 99 | 971.3 |
| 20260906125955 | 63 | 112 | 2.6 | 2.6 | 0.00 | 0.00 | 0.00 | 99 | 971.3 |
| 20260906124954 | 62 | 112 | 1.7 | 1.7 | 0.00 | 0.00 | 0.00 | 99 | 971.1 |
| 20260906124454 | 62 | 112 | 1.7 | 1.7 | 0.00 | 0.00 | 0.00 | 99 | 971.1 |
| 20260906123454 | 62 | 112 | 1.7 | 1.7 | 0.00 | 0.00 | 0.00 | 99 | 971.3 |
| 20260906122954 | 62 | 112 | 1.7 | 1.7 | 0.00 | 0.00 | 0.00 | 99 | 971.2 |
| 20260906122455 | 62 | 112 | 1.7 | 1.7 | 0.00 | 0.00 | 0.00 | 99 | 971.1 |
| 20260906121455 | 62 | 112 | 1.7 | 1.7 | 0.00 | 0.00 | 0.00 | 99 | 970.9 |
| 20260906120956 | 62 | 112 | 1.7 | 1.7 | 0.00 | 0.00 | 0.00 | 99 | 970.9 |
| 20260906115955 | 62 | 130 | 1.7 | 1.7 | 0.00 | 0.00 | 0.00 | 99 | 970.8 |
| 20260906115454 | 62 | 135 | 1.7 | 1.7 | 0.00 | 0.00 | 0.00 | 99 | 970.8 |
| 20260906114955 | 62 | 112 | 0.0 | 1.7 | 0.00 | 0.00 | 0.00 | 99 | 970.8 |
| 20260906114455 | 62 | 112 | 1.7 | 1.7 | 0.00 | 0.00 | 0.00 | 99 | 970.8 |
| 20260906113955 | 62 | 112 | 1.7 | 1.7 | 0.00 | 0.00 | 0.00 | 99 | 971.0 |
| 20260906113455 | 62 | 112 | 1.7 | 1.7 | 0.00 | 0.00 | 0.00 | 99 | 971.0 |
| 20260906112457 | 62 | 112 | 0.0 | 0.0 | 0.00 | 0.00 | 0.00 | 99 | 971.2 |
| 20260906111456 | 62 | 202 | 0.0 | 0.0 | 0.00 | 0.00 | 0.00 | 99 | 970.5 |
| 20260906110956 | 62 | 202 | 0.9 | 0.9 | 0.00 | 0.00 | 0.00 | 99 | 970.5 |
| 20260906105457 | 63 | 112 | 1.7 | 1.7 | 0.00 | 0.00 | 0.00 | 99 | 970.6 |
| 20260906104955 | 63 | 112 | 1.7 | 1.7 | 0.00 | 0.00 | 0.00 | 99 | 970.5 |
| 20260906104456 | 63 | 112 | 1.7 | 1.7 | 0.00 | 0.00 | 0.00 | 99 | 970.5 |
| 20260906103956 | 63 | 112 | 1.7 | 1.7 | 0.00 | 0.00 | 0.00 | 99 | 970.2 |
| 20260906103455 | 63 | 112 | 1.7 | 1.7 | 0.00 | 0.00 | 0.00 | 99 | 970.2 |
| 20260906102455 | 63 | 112 | 1.7 | 1.7 | 0.00 | 0.00 | 0.00 | 99 | 970.1 |
| 20260906101955 | 63 | 112 | 1.7 | 1.7 | 0.00 | 0.00 | 0.00 | 99 | 970.1 |
| 20260906101456 | 63 | 112 | 1.7 | 1.7 | 0.00 | 0.00 | 0.00 | 99 | 969.9 |
| 20260906100955 | 63 | 112 | 1.7 | 1.7 | 0.00 | 0.00 | 0.00 | 99 | 969.9 |
| 20260906095956 | 63 | 112 | 1.7 | 1.7 | 0.00 | 0.00 | 0.00 | 99 | 969.9 |
| 20260906095456 | 63 | 112 | 2.6 | 4.3 | 0.00 | 0.00 | 0.00 | 99 | 969.9 |
| 20260906094956 | 63 | 112 | 2.6 | 4.3 | 0.00 | 0.00 | 0.00 | 99 | 970.0 |
| 20260906094456 | 63 | 112 | 2.6 | 2.6 | 0.00 | 0.00 | 0.00 | 99 | 970.0 |
| 20260906093956 | 63 | 112 | 1.7 | 2.6 | 0.00 | 0.00 | 0.00 | 99 | 970.0 |
| 20260906093456 | 63 | 202 | 2.6 | 2.6 | 0.00 | 0.00 | 0.00 | 99 | 970.0 |
| 20260906092956 | 63 | 112 | 0.0 | 0.0 | 0.00 | 0.00 | 0.00 | 99 | 969.9 |
| 20260906091956 | 63 | 22 | 4.3 | 6.1 | 0.00 | 0.00 | 0.00 | 99 | 969.7 |
| 20260906085456 | 62 | 112 | 1.7 | 2.6 | 0.00 | 0.00 | 0.00 | 99 | 970.1 |
| 20260906084956 | 62 | 225 | 2.6 | 2.6 | 0.00 | 0.00 | 0.00 | 99 | 970.2 |
| 20260906084456 | 62 | 146 | 0.9 | 2.6 | 0.00 | 0.00 | 0.00 | 99 | 970.2 |
| 20260906083457 | 62 | 180 | 0.0 | 0.0 | 0.00 | 0.00 | 0.00 | 99 | 970.2 |
| 20260906082957 | 62 | 180 | 0.0 | 0.0 | 0.00 | 0.00 | 0.00 | 99 | 970.2 |
| 20260906082457 | 62 | 180 | 0.0 | 0.0 | 0.00 | 0.00 | 0.00 | 99 | 970.2 |
| 20260906081457 | 62 | 180 | 0.0 | 0.0 | 0.00 | 0.00 | 0.00 | 99 | 970.1 |
| 20260906080956 | 62 | 180 | 0.0 | 0.0 | 0.00 | 0.00 | 0.00 | 99 | 970.1 |
| 20260906075957 | 62 | 180 | 0.0 | 0.0 | 0.00 | 0.00 | 0.00 | 99 | 969.9 |
| 20260906075457 | 62 | 180 | 0.0 | 0.0 | 0.00 | 0.00 | 0.00 | 99 | 969.9 |
| 20260906074957 | 62 | 180 | 0.0 | 0.0 | 0.00 | 0.00 | 0.00 | 99 | 970.0 |
| 20260906074457 | 62 | 180 | 0.0 | 0.0 | 0.00 | 0.00 | 0.00 | 99 | 970.0 |
| 20260906073957 | 62 | 180 | 0.0 | 0.0 | 0.00 | 0.00 | 0.00 | 99 | 970.0 |
| 20260906073458 | 62 | 180 | 0.0 | 0.0 | 0.00 | 0.00 | 0.00 | 99 | 970.0 |
| 20260906072957 | 62 | 180 | 0.0 | 0.0 | 0.00 | 0.00 | 0.00 | 99 | 970.0 |
| 20260906071957 | 62 | 225 | 0.0 | 0.0 | 0.00 | 0.00 | 0.00 | 99 | 970.1 |
| 20260906071457 | 62 | 158 | 0.0 | 1.7 | 0.00 | 0.00 | 0.00 | 99 | 970.3 |
| 20260906065957 | 62 | 119 | 0.0 | 0.0 | 0.00 | 0.00 | 0.00 | 99 | 970.4 |
| 20260906065458 | 62 | 112 | 0.0 | 0.0 | 0.00 | 0.00 | 0.00 | 99 | 970.4 |
| 20260906064958 | 62 | 135 | 0.0 | 0.0 | 0.00 | 0.00 | 0.00 | 99 | 970.5 |
| 20260906064458 | 63 | 112 | 0.0 | 0.0 | 0.00 | 0.00 | 0.00 | 99 | 970.5 |
| 20260906063957 | 63 | 338 | 0.0 | 0.0 | 0.00 | 0.00 | 0.00 | 99 | 970.4 |
| 20260906063458 | 63 | 338 | 0.0 | 0.0 | 0.00 | 0.00 | 0.00 | 99 | 970.4 |
| 20260906062457 | 63 | 338 | 1.7 | 1.7 | 0.00 | 0.00 | 0.00 | 99 | 970.6 |
| 20260906061958 | 63 | 338 | 1.7 | 1.7 | 0.00 | 0.00 | 0.00 | 99 | 970.6 |
| 20260906061458 | 63 | 338 | 0.0 | 0.0 | 0.00 | 0.00 | 0.00 | 99 | 970.6 |
| 20260906060958 | 63 | 338 | 0.0 | 0.0 | 0.00 | 0.00 | 0.00 | 99 | 970.6 |
| 20260906060458 | 63 | 338 | 0.0 | 0.0 | 0.00 | 0.00 | 0.00 | 99 | 970.6 |
| 20260906055958 | 63 | 338 | 0.9 | 0.9 | 0.00 | 0.00 | 0.00 | 99 | 970.6 |
| 20260906055458 | 64 | 112 | 0.0 | 2.6 | 0.00 | 0.00 | 0.00 | 99 | 970.6 |
| 20260906054958 | 65 | 112 | 2.6 | 2.6 | 0.00 | 0.00 | 0.00 | 99 | 970.8 |
| 20260906054457 | 65 | 112 | 2.6 | 2.6 | 0.00 | 0.00 | 0.00 | 99 | 970.8 |
| 20260906053957 | 65 | 112 | 2.6 | 2.6 | 0.00 | 0.00 | 0.00 | 99 | 970.4 |
| 20260906053458 | 65 | 112 | 2.6 | 2.6 | 0.00 | 0.00 | 0.00 | 99 | 970.4 |
| 20260906052958 | 65 | 112 | 2.6 | 2.6 | 0.00 | 0.00 | 0.00 | 99 | 970.4 |
| 20260906052458 | 65 | 112 | 2.6 | 2.6 | 0.00 | 0.00 | 0.00 | 99 | 970.5 |
| 20260906051959 | 65 | 112 | 2.6 | 2.6 | 0.00 | 0.00 | 0.00 | 99 | 970.5 |
| 20260906050458 | 65 | 112 | 2.6 | 2.6 | 0.00 | 0.00 | 0.00 | 99 | 970.6 |
| 20260906045959 | 65 | 112 | 2.6 | 2.6 | 0.00 | 0.00 | 0.00 | 99 | 970.7 |
| 20260906045458 | 65 | 112 | 2.6 | 2.6 | 0.00 | 0.00 | 0.00 | 99 | 970.7 |
| 20260906044958 | 65 | 112 | 2.6 | 2.6 | 0.00 | 0.00 | 0.00 | 99 | 970.7 |
| 20260906044459 | 65 | 112 | 2.6 | 2.6 | 0.00 | 0.00 | 0.00 | 99 | 970.7 |
| 20260906043959 | 65 | 112 | 2.6 | 2.6 | 0.00 | 0.00 | 0.00 | 99 | 970.7 |
| 20260906043459 | 65 | 112 | 2.6 | 2.6 | 0.00 | 0.00 | 0.00 | 99 | 970.7 |
| 20260906042958 | 65 | 112 | 2.6 | 2.6 | 0.00 | 0.00 | 0.00 | 99 | 970.7 |
| 20260906042458 | 65 | 112 | 2.6 | 2.6 | 0.00 | 0.00 | 0.00 | 99 | 970.7 |
| 20260906041959 | 65 | 112 | 2.6 | 2.6 | 0.00 | 0.00 | 0.00 | 99 | 970.7 |
| 20260906041001 | 65 | 112 | 2.6 | 2.6 | 0.00 | 0.00 | 0.00 | 99 | 970.4 |
| 20260906040000 | 65 | 135 | 3.5 | 4.3 | 0.00 | 0.00 | 0.00 | 99 | 970.3 |
| 20260906034959 | 64 | 135 | 1.7 | 1.7 | 0.00 | 0.00 | 0.00 | 99 | 970.4 |
| 20260906033002 | 64 | 202 | 1.7 | 1.7 | 0.00 | 0.00 | 0.00 | 99 | 970.3 |
| 20260906032459 | 64 | 242 | 1.7 | 2.6 | 0.00 | 0.00 | 0.00 | 99 | 970.5 |
| 20260906031959 | 63 | 338 | 0.9 | 0.9 | 0.00 | 0.00 | 0.00 | 99 | 970.5 |
| 20260906031459 | 63 | 338 | 0.0 | 0.9 | 0.00 | 0.00 | 0.00 | 99 | 970.5 |
| 20260906031000 | 63 | 338 | 0.0 | 0.0 | 0.00 | 0.00 | 0.00 | 99 | 970.5 |
| 20260906030500 | 63 | 338 | 0.0 | 1.7 | 0.00 | 0.00 | 0.00 | 99 | 970.5 |
| 20260906030000 | 63 | 338 | 0.0 | 0.0 | 0.00 | 0.00 | 0.00 | 99 | 970.5 |
| 20260906025459 | 63 | 338 | 0.0 | 0.0 | 0.00 | 0.00 | 0.00 | 99 | 970.5 |
| 20260906024500 | 65 | 112 | 0.0 | 0.0 | 0.00 | 0.00 | 0.00 | 99 | 970.4 |
| 20260906023959 | 65 | 112 | 0.0 | 0.0 | 0.00 | 0.00 | 0.00 | 99 | 970.1 |
| 20260906023500 | 65 | 112 | 0.0 | 0.0 | 0.00 | 0.00 | 0.00 | 99 | 970.1 |
| 20260906023001 | 65 | 112 | 0.0 | 0.0 | 0.00 | 0.00 | 0.00 | 99 | 970.1 |
| 20260906022459 | 65 | 112 | 0.0 | 0.0 | 0.00 | 0.00 | 0.00 | 99 | 970.1 |
| 20260906022001 | 65 | 112 | 0.0 | 0.0 | 0.00 | 0.00 | 0.00 | 99 | 970.1 |
| 20260906021500 | 65 | 112 | 0.0 | 0.0 | 0.00 | 0.00 | 0.00 | 99 | 970.0 |
| 20260906020459 | 65 | 135 | 0.0 | 0.0 | 0.00 | 0.00 | 0.00 | 99 | 969.9 |
| 20260906020000 | 65 | 158 | 0.0 | 0.0 | 0.00 | 0.00 | 0.00 | 99 | 969.9 |
| 20260906015500 | 65 | 158 | 0.0 | 0.0 | 0.00 | 0.00 | 0.00 | 99 | 969.9 |
| 20260906015000 | 65 | 119 | 0.0 | 0.0 | 0.00 | 0.00 | 0.00 | 99 | 969.7 |
| 20260906014501 | 65 | 112 | 0.0 | 0.9 | 0.00 | 0.00 | 0.00 | 99 | 969.7 |
| 20260906013500 | 65 | 92 | 0.9 | 1.7 | 0.00 | 0.00 | 0.00 | 99 | 969.6 |
| 20260906013000 | 65 | 96 | 1.7 | 1.7 | 0.00 | 0.00 | 0.00 | 99 | 969.6 |
| 20260906012501 | 66 | 158 | 1.7 | 1.7 | 0.00 | 0.00 | 0.00 | 99 | 969.2 |
| 20260906012000 | 66 | 158 | 1.7 | 2.6 | 0.00 | 0.00 | 0.00 | 99 | 969.2 |
| 20260906011500 | 66 | 112 | 1.7 | 1.7 | 0.00 | 0.00 | 0.00 | 99 | 969.2 |
| 20260906010502 | 66 | 112 | 1.7 | 1.7 | 0.00 | 0.00 | 0.00 | 99 | 968.8 |
| 20260906010001 | 66 | 112 | 1.7 | 1.7 | 0.00 | 0.00 | 0.00 | 99 | 968.8 |
| 20260906005500 | 67 | 112 | 1.7 | 1.7 | 0.00 | 0.00 | 0.00 | 99 | 968.8 |
| 20260906005000 | 67 | 101 | 1.7 | 2.6 | 0.00 | 0.00 | 0.00 | 99 | 968.8 |
| 20260906004501 | 67 | 112 | 2.6 | 2.6 | 0.00 | 0.00 | 0.00 | 99 | 968.8 |
| 20260906004000 | 67 | 125 | 2.6 | 2.6 | 0.00 | 0.00 | 0.00 | 99 | 968.8 |
| 20260906003501 | 67 | 135 | 2.6 | 2.6 | 0.00 | 0.00 | 0.00 | 99 | 968.8 |
| 20260906003000 | 67 | 68 | 2.6 | 2.6 | 0.00 | 0.00 | 0.00 | 99 | 968.8 |
| 20260906002502 | 67 | 68 | 2.6 | 2.6 | 0.00 | 0.00 | 0.00 | 99 | 969.0 |
| 20260906002001 | 68 | 68 | 1.7 | 1.7 | 0.00 | 0.00 | 0.00 | 99 | 969.0 |
| 20260906001501 | 68 | 57 | 1.7 | 1.7 | 0.00 | 0.00 | 0.00 | 99 | 968.9 |
| 20260906001002 | 68 | 91 | 1.7 | 1.7 | 0.00 | 0.00 | 0.00 | 99 | 968.9 |
| 20260905235501 | 71 | 112 | 0.9 | 0.9 | 0.00 | 0.00 | 0.00 | 96 | 969.0 |
| 20260905235002 | 71 | 112 | 0.9 | 0.9 | 0.00 | 0.00 | 0.00 | 96 | 968.9 |
| 20260905234501 | 71 | 112 | 0.9 | 0.9 | 0.00 | 0.00 | 0.00 | 96 | 968.9 |
| 20260905234002 | 71 | 112 | 0.9 | 0.9 | 0.00 | 0.00 | 0.00 | 96 | 969.0 |
| 20260905233002 | 71 | 112 | 0.9 | 0.9 | 0.00 | 0.00 | 0.00 | 96 | 969.0 |
| 20260905232001 | 71 | 112 | 0.9 | 0.9 | 0.00 | 0.00 | 0.00 | 96 | 969.1 |
| 20260905231001 | 71 | 112 | 0.9 | 5.2 | 0.00 | 0.00 | 0.00 | 96 | 968.9 |
| 20260905230512 | 71 | 106 | 4.3 | 5.2 | 0.00 | 0.00 | 0.00 | 96 | 969.0 |
| 20260905230002 | 71 | 112 | 4.3 | 6.1 | 0.00 | 0.00 | 0.00 | 96 | 969.0 |
| 20260905225501 | 71 | 158 | 4.3 | 4.3 | 0.00 | 0.00 | 0.00 | 96 | 969.0 |
| 20260905225002 | 71 | 112 | 2.6 | 2.6 | 0.00 | 0.00 | 0.00 | 96 | 969.0 |
| 20260905224501 | 71 | 135 | 2.6 | 2.6 | 0.00 | 0.00 | 0.00 | 96 | 969.0 |
| 20260905224002 | 71 | 225 | 2.6 | 2.6 | 0.00 | 0.00 | 0.00 | 96 | 968.9 |
| 20260905223501 | 71 | 182 | 2.6 | 2.6 | 0.00 | 0.00 | 0.00 | 96 | 968.9 |
| 20260905223002 | 71 | 257 | 1.7 | 5.2 | 0.00 | 0.00 | 0.00 | 96 | 968.9 |
| 20260905222502 | 70 | 90 | 5.2 | 5.2 | 0.00 | 0.00 | 0.00 | 97 | 968.7 |
| 20260905221502 | 70 | 211 | 4.3 | 5.2 | 0.00 | 0.00 | 0.00 | 99 | 968.8 |
| 20260905221001 | 70 | 225 | 4.3 | 5.2 | 0.00 | 0.00 | 0.00 | 99 | 968.8 |
| 20260905220002 | 70 | 180 | 1.7 | 5.2 | 0.00 | 0.00 | 0.00 | 99 | 969.0 |
| 20260905215501 | 70 | 185 | 0.9 | 1.7 | 0.00 | 0.00 | 0.00 | 99 | 969.0 |
| 20260905215002 | 70 | 202 | 1.7 | 5.2 | 0.00 | 0.00 | 0.00 | 99 | 968.5 |
| 20260905214502 | 70 | 90 | 4.3 | 4.3 | 0.00 | 0.00 | 0.00 | 99 | 968.5 |
| 20260905214001 | 70 | 90 | 2.6 | 4.3 | 0.00 | 0.00 | 0.00 | 99 | 968.8 |
| 20260905213002 | 69 | 135 | 2.6 | 2.6 | 0.00 | 0.00 | 0.00 | 99 | 968.8 |
| 20260905212502 | 69 | 112 | 2.6 | 2.6 | 0.00 | 0.00 | 0.00 | 99 | 968.9 |
| 20260905212002 | 69 | 112 | 2.6 | 2.6 | 0.00 | 0.00 | 0.00 | 99 | 968.9 |
| 20260905211502 | 69 | 135 | 2.6 | 6.1 | 0.00 | 0.00 | 0.00 | 99 | 968.9 |
| 20260905211002 | 69 | 135 | 6.1 | 6.1 | 0.00 | 0.00 | 0.00 | 99 | 968.9 |
| 20260905210502 | 69 | 135 | 5.2 | 5.2 | 0.00 | 0.00 | 0.00 | 99 | 968.7 |
| 20260905205503 | 69 | 112 | 2.6 | 4.3 | 0.00 | 0.00 | 0.00 | 99 | 968.7 |
| 20260905205002 | 69 | 112 | 1.7 | 2.6 | 0.00 | 0.00 | 0.00 | 98 | 969.0 |
| 20260905204502 | 69 | 112 | 1.7 | 2.6 | 0.00 | 0.00 | 0.00 | 97 | 969.0 |
| 20260905204003 | 70 | 130 | 2.6 | 4.3 | 0.00 | 0.00 | 0.00 | 96 | 969.3 |
| 20260905203504 | 71 | 158 | 2.6 | 2.6 | 0.00 | 0.00 | 0.00 | 94 | 969.3 |
| 20260905203003 | 71 | 158 | 2.6 | 2.6 | 0.00 | 0.00 | 0.00 | 94 | 969.3 |